#timestamp,LO_Frequency,Hit,StdDev 
1568379615.1,286047002.8,N
1568379635.9,286047000.1,N
1568379655.7,286047000.0,N
1568379675.5,286046999.8,N
1568379695.4,286047004.3,N
1568379715.2,286047001.6,N
1568379735.1,286047000.3,N
1568379736.0,286047000.3,N
1568379755.8,286047001.5,N
1568379775.6,286047003.4,N
1568379795.5,286047004.6,N
1568379815.3,286047007.2,Y
1568379835.1,286047001.4,P
1568379855.9,286047000.0,N
1568379875.7,286046998.6,N
1568379895.6,286046998.9,N
1568379915.4,286046997.8,N
1568379935.2,286046997.8,N
1568379955.1,286046995.1,Y
1568379956.0,286046995.1,P
1568379975.8,286046994.9,N
1568379995.7,286046997.9,N
1568380015.5,286046998.0,N
1568380035.3,286046998.0,N
1568380055.2,286046997.4,N
1568380075.9,286046997.9,N
1568380095.7,286046997.3,N
1568380115.6,286046995.0,Y
1568380135.4,286047001.1,P
1568380155.3,286047002.3,N
1568380175.1,286047001.9,N
1568380176.0,286047001.9,N
1568380195.8,286047000.7,N
1568380215.7,286046998.3,N
1568380235.5,286046999.4,N
1568380255.3,286046998.2,N
1568380275.2,286046998.7,N
1568380295.0,286046996.9,N
1568380295.9,286046996.9,N
1568380315.8,286046999.5,N
1568380335.6,286046998.2,N
1568380355.4,286046999.0,N
1568380375.3,286047000.5,N
1568380395.1,286046998.9,N
1568380415.8,286046998.9,N
1568380435.7,286047001.0,N
1568380455.5,286047002.8,N
1568380475.4,286047001.7,N
1568380495.2,286047001.9,N
1568380515.0,286047002.4,N
1568380515.9,286047002.4,N
1568380535.8,286047000.6,N
1568380555.6,286046998.1,N
1568380575.4,286046998.5,N
1568380595.3,286046998.1,N
1568380615.1,286046997.3,N
1568380635.9,286046999.1,N
1568380655.7,286046999.4,N
1568380675.5,286046996.8,N
1568380695.4,286046996.5,N
1568380715.2,286046998.9,N
1568380735.0,286046999.5,N
1568380735.9,286046999.5,N
1568380755.8,286046999.6,N
1568380775.6,286046997.2,N
1568380795.5,286046999.1,N
1568380815.3,286047000.6,N
1568380835.1,286046999.1,N
1568380855.9,286046999.0,N
1568380875.7,286047000.8,N
1568380895.5,286047002.4,N
1568380915.4,286047000.8,N
1568380935.2,286046998.2,N
1568380955.1,286047000.0,N
1568380956.0,286047000.0,N
1568380975.8,286047001.0,N
1568380995.6,286047001.2,N
1568381015.5,286046998.4,N
1568381035.3,286046996.5,N
1568381055.1,286046999.3,N
1568381075.9,286047000.9,N
1568381095.7,286047000.8,N
1568381115.6,286047000.6,N
1568381135.4,286046998.2,N
1568381155.2,286047000.6,N
1568381175.1,286047002.4,N
1568381176.0,286047002.4,N
1568381195.8,286047002.7,N
1568381215.6,286046999.9,N
1568381235.5,286047000.1,N
1568381255.3,286046999.7,N
1568381275.2,286047002.0,N
1568381295.9,286046999.9,N
1568381315.7,286047001.5,N
1568381335.6,286047000.0,N
1568381355.4,286046998.7,N
1568381375.2,286046999.9,N
1568381395.1,286047002.1,N
1568381396.0,286047002.1,N
1568381415.8,286047000.4,N
1568381435.7,286047000.7,N
1568381455.5,286047000.8,N
1568381475.3,286047000.6,N
1568381495.2,286047000.1,N
1568381515.0,286046998.1,N
1568381515.9,286046998.1,N
1568381535.7,286046999.8,N
1568381555.6,286047000.2,N
1568381575.4,286047002.2,N
1568381595.3,286047001.9,N
1568381615.1,286047002.6,N
1568381616.0,286047002.6,N
1568381635.8,286047001.8,N
1568381655.7,286047002.1,N
1568381675.5,286047002.3,N
1568381695.3,286047000.1,N
1568381715.2,286047002.0,N
1568381735.0,286047002.4,N
1568381735.9,286047002.4,N
1568381755.8,286047003.3,N
1568381775.6,286047005.0,Y
1568381795.4,286047005.5,P
1568381815.3,286047003.4,N
1568381835.1,286047003.4,N
1568381855.9,286047001.9,N
1568381875.7,286047002.8,N
1568381895.5,286047002.0,N
1568381915.4,286047000.1,N
1568381935.2,286047000.1,N
1568381955.0,286047001.0,N
1568381955.9,286047001.0,N
1568381975.8,286046999.0,N
1568381995.6,286046996.6,N
1568382015.5,286046999.1,N
1568382035.3,286046999.6,N
1568382055.1,286046997.5,N
1568382075.9,286046997.7,N
1568382095.7,286046997.2,N
1568382115.5,286046998.2,N
1568382135.4,286047000.2,N
1568382155.2,286047000.7,N
1568382175.1,286046996.5,N
1568382176.0,286046996.5,N
1568382195.8,286046998.1,N
1568382215.6,286046999.1,N
1568382235.5,286047001.2,N
1568382255.3,286047000.0,N
1568382275.2,286047002.7,N
1568382295.9,286047002.3,N
1568382315.7,286046998.2,N
1568382335.6,286046996.5,N
1568382355.4,286046998.8,N
1568382375.2,286047002.6,N
1568382395.1,286047002.2,N
1568382396.0,286047002.2,N
1568382415.8,286046999.7,N
1568382435.7,286046998.1,N
1568382455.5,286046998.6,N
1568382475.3,286046998.4,N
1568382495.2,286046998.1,N
1568382515.0,286046998.3,N
1568382515.9,286046998.3,N
1568382535.7,286047002.2,N
1568382555.6,286047002.8,N
1568382575.4,286047001.2,N
1568382595.3,286046999.0,N
1568382615.1,286046999.6,N
1568382616.0,286046999.6,N
1568382635.8,286046998.5,N
1568382655.7,286046997.6,N
1568382675.5,286046996.6,N
1568382695.3,286046996.8,N
1568382715.2,286046999.6,N
1568382735.0,286047001.1,N
1568382735.9,286047001.1,N
1568382755.8,286046998.3,N
1568382775.6,286046999.4,N
1568382795.4,286046999.2,N
1568382815.3,286046998.4,N
1568382835.1,286046998.1,N
1568382855.8,286046998.8,N
1568382875.7,286046999.2,N
1568382895.5,286046999.4,N
1568382915.4,286046998.2,N
1568382935.2,286047000.6,N
1568382955.0,286047001.0,N
1568382955.9,286047001.0,N
1568382975.8,286046998.1,N
1568382995.6,286047000.6,N
1568383015.5,286046998.1,N
1568383035.3,286047000.1,N
1568383055.1,286046999.8,N
1568383075.9,286047000.0,N
1568383095.7,286047001.1,N
1568383115.5,286047000.2,N
1568383135.4,286047001.0,N
1568383155.2,286047002.5,N
1568383175.1,286047001.6,N
1568383176.0,286047001.6,N
1568383195.8,286047000.0,N
